Flag for Germany Weather past 2 weeks in Waren (Müritz), Mecklenburg-Western Pomerania, Germany

Now
39 °F

Passing clouds.


Feels Like: 35 °F
Forecast: 36 / 55 °F
Wind: 6 mph from Northwest

Location: Laage

Current Time: Apr 28, 2015 at 7:35:51 AM

Latest Report: Apr 28, 2015 at 6:20 AM


Visibility: N/A

Pressure: 29.80 "Hg

Humidity: 81%

Dew point: 34 °F

Location of Waren (Müritz)Location

Historic Weather in Waren (Müritz) — Graph

°F

Waren (Müritz) temperature yesterday

Maximum temperature yesterday: 50 °F (at 5:20 PM)
Minimum temperature yesterday: 43 °F (at 5:20 AM)
Average temperature yesterday: 46 °F

Past Weeks' High & Low Weather Summary

 TemperatureHumidityPressure
High68 °F (Apr 15, 3:20 PM)100% (Apr 18, 2:20 AM)30.33 "Hg (Apr 18, 2:20 AM)
Low32 °F (Apr 18, 5:20 AM)30% (Apr 15, 4:52 PM)29.65 "Hg (Apr 26, 5:20 PM)
Average48 °F74%30.02 "Hg
* Reported Apr 13 6:20 AM — Apr 28 6:20 AM, Waren (Müritz), Weather by CustomWeather, © 2015

Note: Actual official high and low records may vary slightly from our data, if they occured in-between our weather recording intervals... More about our weather records

Advertising

Waren (Müritz) weather history for previous 24 hours

 ConditionsComfort  
Time TempWeatherWind HumidityBarometerVisibility
6:20 AM
Tue, Apr 28
39 °FPassing clouds.6 mph81%29.80 "HgN/A
5:20 AM41 °FPassing clouds.7 mph76%29.80 "HgN/A
4:20 AM41 °FPassing clouds.7 mph76%29.80 "HgN/A
3:20 AM41 °FPassing clouds.6 mph81%29.77 "HgN/A
2:20 AM45 °FPassing clouds.9 mph71%29.77 "HgN/A
1:20 AM46 °FPassing clouds.9 mph66%29.77 "HgN/A
12:20 AM46 °FPassing clouds.9 mph66%29.77 "HgN/A
11:20 PM
Mon, Apr 27
46 °FPassing clouds.10 mph71%29.77 "HgN/A
10:20 PM45 °FPassing clouds.8 mph76%29.77 "HgN/A
9:20 PM46 °FBroken clouds.6 mph66%29.77 "HgN/A
8:20 PM46 °FBroken clouds.5 mph71%29.74 "HgN/A
7:20 PM48 °FPartly sunny.5 mph62%29.74 "HgN/A
6:20 PM48 °FPartly sunny.9 mph62%29.74 "HgN/A
5:20 PM50 °FBroken clouds.10 mph67%29.74 "HgN/A
4:20 PM48 °FBroken clouds.12 mph76%29.74 "HgN/A
3:20 PM48 °FBroken clouds.10 mph71%29.74 "HgN/A
3:03 PM48 °FBroken clouds.13 mph71%29.74 "HgN/A
2:20 PM48 °FLight rain. Broken clouds.13 mph71%29.71 "HgN/A
1:20 PM46 °FLight rain. More clouds than sun.13 mph82%29.71 "HgN/A
12:20 PM45 °FLight rain. Mostly cloudy.10 mph93%29.71 "HgN/A
11:20 AM45 °FLight rain. Mostly cloudy.12 mph87%29.68 "HgN/A
10:20 AM43 °FLight rain. Mostly cloudy.9 mph93%29.68 "HgN/A
9:20 AM43 °FRain. Broken clouds.8 mph93%29.68 "Hg4 mi
8:59 AM43 °FRain. Broken clouds.10 mph93%29.68 "Hg4 mi
8:20 AM43 °FRain. Cloudy.7 mph100%29.68 "Hg4 mi
7:20 AM43 °FLight rain. Cloudy.8 mph100%29.68 "Hg4 mi
Weather by CustomWeather, © 2015

See weather overviewHow to use our weather pages